[[{"header":{"parameterUnit":"m.s-1","parameterCategory":1,"la1":30.2991,"la2":30.254,"lo1":-89.0895,"lo2":-89.0444,"dy":0.0017,"dx":0.0017,"nx":28,"ny":28,"refTime":"2024-03-17T21:00:00:Z","depth":0,"parameterNumber":2,"parameterNumberName":"U-component_of_WINDS"},"data":[0,0,0,0,0,0,0,0,0,0,0,0,0,0,0,0,0,0,0,0,0,0,0,0,0,0,0,0,0,0,0,0,0,0,0,0,0,0,0,0,0,0,0,0,0,0,0,0,0,0,0,0,0,0,0,0,0,0,2.2738,2.2738,0,2.2744,2.2744,2.2744,2.2758,2.2758,2.2758,2.2758,2.2762,2.2761,2.2761,0,0,0,0,0,0,0,0,0,0,0,0,0,2.2736,2.2736,2.2738,2.2738,2.2738,2.2744,2.2744,2.2744,2.2757,2.2758,2.2758,2.2759,2.2762,2.2761,2.2761,0,0,0,0,0,0,0,0,0,0,0,0,0,2.2739,2.2736,2.2738,2.2745,2.2746,2.2744,2.2744,2.2744,2.2757,2.2758,2.2758,2.2759,2.2762,2.2761,2.2761,2.2751,0,0,2.276,2.276,0,0,0,0,0,0,0,0,2.2739,2.2739,2.2744,2.2745,2.2746,2.275,2.2745,2.2746,2.2757,2.2753,2.2758,2.2759,2.2757,2.2757,2.2757,2.2751,2.2751,2.276,2.276,2.276,2.276,0,0,0,0,0,0,0,2.2739,2.2739,2.274,2.2744,2.2745,2.2748,2.2749,2.2745,2.2753,2.2753,2.2754,2.2755,2.2758,2.2758,2.2758,2.2751,2.276,2.276,2.276,2.276,2.2737,2.2737,0,0,0,0,0,0,2.2738,2.2739,2.274,2.274,2.2743,2.2748,2.2749,2.2748,2.2753,2.2754,2.2755,2.2756,2.2758,2.2758,2.2758,2.2746,2.276,2.276,2.276,2.2738,2.2737,2.2737,0,0,0,0,0,0,2.2737,2.2738,2.274,2.274,2.274,2.2747,2.2747,2.2748,2.2748,2.2754,2.2755,2.2753,2.2758,2.2758,2.2753,2.2747,2.276,2.2759,2.2738,2.2737,2.2737,2.2723,0,0,0,0,0,0,2.2737,2.2737,2.2734,2.274,2.274,2.2735,2.2747,2.2748,2.2748,2.2749,2.2753,2.2754,2.2759,2.2753,2.2753,2.2746,2.2759,2.2739,2.2738,2.2737,2.2724,2.2722,2.272,0,0,0,0,0,2.2737,2.2729,2.2734,2.2734,2.2736,2.2735,2.2735,2.2742,2.2748,2.2744,2.2748,2.2754,2.2748,2.2753,2.2752,2.2746,2.2739,2.2738,2.2737,2.2725,2.2722,2.272,0,0,0,0,0,0,2.2721,2.273,2.2735,2.2728,2.2731,2.2737,2.2732,2.2739,2.2738,2.274,2.2747,2.2748,2.2741,2.2743,2.2748,2.2736,2.2744,2.2743,2.2735,2.2733,2.2731,2.273,2.2759,0,0,0,0,0,2.2717,2.2716,2.2723,2.2716,2.2718,2.2725,2.2724,2.273,2.2732,2.2733,2.2736,2.2737,2.2736,2.2735,2.2733,2.2725,2.2725,2.272,2.2718,2.2717,2.2715,2.2711,2.2709,2.2733,2.2733,2.2733,0,0,2.2707,2.2712,2.2711,2.2713,2.2716,2.2714,2.2725,2.2723,2.2721,2.2732,2.2727,2.273,2.2732,2.2725,2.2722,2.2726,2.2709,2.2715,2.2714,2.2713,2.271,2.2707,2.2705,2.2733,2.2733,2.2733,0,0,2.269,2.2693,2.2689,2.2691,2.2696,2.2701,2.27,2.2705,2.2708,2.2704,2.2712,2.271,2.2707,2.2709,2.2709,2.2694,2.2699,2.2693,2.2683,2.2679,2.2677,2.2675,2.2669,2.2667,2.2692,2.2692,2.2692,0,2.2677,2.2676,2.2685,2.2682,2.2683,2.2695,2.2689,2.2691,2.2694,2.2695,2.27,2.2697,2.2699,2.2693,2.269,2.269,2.2688,2.2692,2.2676,2.2675,2.2673,2.2668,2.2666,2.2691,2.2691,2.2691,2.2691,0,2.266,2.2659,2.2655,2.2659,2.2659,2.2655,2.2664,2.2663,2.2669,2.2673,2.2669,2.2673,2.2673,2.2672,2.2677,2.2666,2.2669,2.2675,2.2683,2.267,2.2665,2.2663,2.269,2.269,2.2691,2.2691,0,0,2.2631,2.2642,2.264,2.2642,2.2648,2.2647,2.2644,2.2646,2.2645,2.2647,2.2644,2.2643,2.2649,2.2649,2.2655,2.2651,2.2639,2.2658,2.2658,2.2654,2.2628,2.2623,2.262,2.2643,2.2643,2.2643,2.2628,0,2.2614,2.261,2.2619,2.2612,2.2611,2.2623,2.262,2.2623,2.2628,2.2627,2.2632,2.2631,2.2639,2.264,2.2637,2.2641,2.2634,2.2642,2.264,2.264,2.2638,2.2618,2.2612,2.2597,2.2626,2.2625,2.2625,0,2.2593,2.2596,2.2589,2.2597,2.2597,2.2594,2.2597,2.2597,2.2601,2.2604,2.2606,2.2613,2.261,2.2619,2.2615,2.2621,2.2621,2.2623,2.2622,2.2621,2.2631,2.2616,2.2593,2.259,2.2622,2.2623,2.2623,0,2.2572,2.2574,2.257,2.2572,2.2581,2.2579,2.2583,2.2588,2.2588,2.259,2.2591,2.2592,2.2593,2.2593,2.2601,2.2606,2.2596,2.2605,2.2598,2.2598,2.2594,2.2594,2.257,2.2595,2.2595,2.2595,2.2595,0,2.2551,2.2547,2.2561,2.2559,2.2554,2.2565,2.256,2.2564,2.2569,2.2568,2.2578,2.2576,2.2586,2.2586,2.2591,2.2587,2.2587,2.259,2.2591,2.2588,2.2588,2.2587,2.2588,2.2595,2.2595,2.2595,2.2595,0,2.2526,2.2535,2.2533,2.2542,2.2544,2.2541,2.2548,2.2547,2.2553,2.2551,2.2551,2.256,2.256,2.2568,2.2569,2.2573,2.2566,2.2569,2.2565,2.2565,2.2558,2.2558,2.2532,2.2529,2.2557,2.2556,2.2556,0,2.2512,2.2509,2.2519,2.2519,2.2523,2.2523,2.2524,2.2535,2.2535,2.2541,2.2538,2.254,2.2541,2.254,2.2547,2.2548,2.2551,2.2542,2.2551,2.2549,2.255,2.255,2.255,2.2539,2.2539,2.2539,2.2538,0,2.2486,2.2491,2.2493,2.2497,2.2498,2.2501,2.2505,2.2504,2.2516,2.2517,2.2517,2.2519,2.2521,2.2522,2.2524,2.2527,2.2534,2.2536,2.2534,2.2531,2.2528,2.2529,2.2558,2.2536,2.2536,2.2536,2.2537,2.2537,2.2465,2.2464,2.2471,2.2472,2.2477,2.248,2.2479,2.2486,2.2487,2.249,2.2497,2.2497,2.2502,2.2506,2.2509,2.2509,2.2513,2.2511,2.251,2.2509,2.2507,2.2529,2.2509,2.2509,2.251,2.251,2.251,0,2.2439,2.2445,2.2447,2.2452,2.2454,2.2463,2.2467,2.2468,2.2468,2.2473,2.2474,2.2476,2.2477,2.2484,2.2486,2.2485,2.2488,2.2485,2.2484,2.2485,2.2503,2.2505,2.2482,2.2482,2.2482,2.2482,2.2482,2.2482,2.2426,2.2424,2.243,2.243,2.2435,2.2436,2.2438,2.2441,2.2445,2.2447,2.2448,2.2453,2.2459,2.2462,2.2464,2.2466,2.2466,2.2461,2.2464,2.2481,2.2483,2.2486,2.2487,2.2461,2.2461,2.2445,2.2445,2.2445]},{"header":{"parameterUnit":"m.s-1","parameterCategory":1,"la1":30.2991,"la2":30.254,"lo1":-89.0895,"lo2":-89.0444,"dy":0.0017,"dx":0.0017,"nx":28,"ny":28,"refTime":"2024-03-17T21:00:00:Z","depth":0,"parameterNumber":3,"parameterNumberName":"V-component_of_WINDS"},"data":[0,0,0,0,0,0,0,0,0,0,0,0,0,0,0,0,0,0,0,0,0,0,0,0,0,0,0,0,0,0,0,0,0,0,0,0,0,0,0,0,0,0,0,0,0,0,0,0,0,0,0,0,0,0,0,0,0,0,-6.6437,-6.6437,0,-6.6474,-6.6474,-6.6475,-6.6431,-6.643,-6.6428,-6.6427,-6.646,-6.6463,-6.6465,0,0,0,0,0,0,0,0,0,0,0,0,0,-6.6327,-6.6329,-6.6437,-6.6437,-6.6438,-6.6474,-6.6474,-6.6475,-6.6432,-6.643,-6.6428,-6.6426,-6.646,-6.6462,-6.6465,0,0,0,0,0,0,0,0,0,0,0,0,0,-6.637,-6.633,-6.6437,-6.6421,-6.642,-6.6474,-6.6474,-6.6475,-6.6432,-6.643,-6.6427,-6.6425,-6.6459,-6.6462,-6.6466,-6.6536,0,0,-6.6477,-6.6478,0,0,0,0,0,0,0,0,-6.6368,-6.6374,-6.6423,-6.6422,-6.6421,-6.6446,-6.6448,-6.6495,-6.6433,-6.6427,-6.6427,-6.6424,-6.6457,-6.6461,-6.6473,-6.6538,-6.6539,-6.6477,-6.6479,-6.6481,-6.6482,0,0,0,0,0,0,0,-6.6365,-6.6373,-6.6451,-6.6423,-6.6422,-6.6411,-6.6415,-6.6457,-6.6455,-6.6427,-6.6424,-6.643,-6.6456,-6.647,-6.6473,-6.654,-6.6477,-6.648,-6.6482,-6.6484,-6.6668,-6.667,0,0,0,0,0,0,-6.6364,-6.637,-6.645,-6.6453,-6.6388,-6.6415,-6.6419,-6.644,-6.6455,-6.6455,-6.6432,-6.6427,-6.6465,-6.6469,-6.6474,-6.656,-6.6481,-6.6484,-6.6486,-6.6665,-6.6668,-6.6671,0,0,0,0,0,0,-6.6362,-6.6372,-6.6449,-6.6411,-6.642,-6.642,-6.6444,-6.6442,-6.6455,-6.6458,-6.6457,-6.6446,-6.6463,-6.6469,-6.6522,-6.656,-6.6486,-6.6489,-6.6662,-6.6666,-6.667,-6.6731,0,0,0,0,0,0,-6.6359,-6.6371,-6.6398,-6.6412,-6.6422,-6.6497,-6.6446,-6.6445,-6.6462,-6.6457,-6.6471,-6.6471,-6.6461,-6.6517,-6.6526,-6.6564,-6.6492,-6.6658,-6.6664,-6.6668,-6.6725,-6.6736,-6.6746,0,0,0,0,0,-6.6355,-6.6412,-6.64,-6.641,-6.6456,-6.6499,-6.6505,-6.6494,-6.6465,-6.6493,-6.6495,-6.647,-6.6555,-6.6523,-6.6532,-6.6572,-6.6656,-6.6662,-6.6668,-6.6721,-6.6734,-6.6746,0,0,0,0,0,0,-6.6401,-6.6414,-6.64,-6.6463,-6.6481,-6.6492,-6.6525,-6.6508,-6.6533,-6.6527,-6.6511,-6.6515,-6.6572,-6.6577,-6.6541,-6.6643,-6.6601,-6.6609,-6.6637,-6.665,-6.666,-6.6658,-6.6495,0,0,0,0,0,-6.6419,-6.6454,-6.6462,-6.6517,-6.6527,-6.6525,-6.6543,-6.6534,-6.6551,-6.6557,-6.6563,-6.658,-6.661,-6.663,-6.6658,-6.6726,-6.6729,-6.6758,-6.6768,-6.6777,-6.6784,-6.6823,-6.6836,-6.6691,-6.6691,-6.6691,0,0,-6.6455,-6.6466,-6.6489,-6.6527,-6.6539,-6.6576,-6.6531,-6.6571,-6.6598,-6.6563,-6.6614,-6.6619,-6.6637,-6.6698,-6.6725,-6.6704,-6.6825,-6.6785,-6.6791,-6.6794,-6.683,-6.6844,-6.6856,-6.6696,-6.6695,-6.6694,0,0,-6.654,-6.6552,-6.66,-6.6615,-6.6635,-6.6634,-6.6646,-6.666,-6.6663,-6.6715,-6.669,-6.6722,-6.6774,-6.6788,-6.6802,-6.6897,-6.6876,-6.6906,-6.696,-6.6998,-6.7009,-6.7019,-6.7054,-6.7067,-6.6914,-6.6914,-6.6914,0,-6.6582,-6.6637,-6.6627,-6.667,-6.6688,-6.6661,-6.671,-6.6724,-6.6752,-6.6765,-6.6741,-6.6809,-6.6818,-6.6884,-6.6907,-6.6919,-6.6932,-6.6904,-6.7009,-6.7019,-6.7028,-6.7061,-6.7074,-6.6917,-6.6917,-6.6917,-6.6916,0,-6.6689,-6.6727,-6.6764,-6.6795,-6.6817,-6.6862,-6.6859,-6.6883,-6.6873,-6.6874,-6.6928,-6.6939,-6.697,-6.6985,-6.6974,-6.705,-6.7036,-6.7011,-6.6968,-6.7045,-6.7077,-6.7089,-6.6923,-6.6921,-6.692,-6.6919,0,0,-6.6801,-6.6829,-6.6842,-6.6857,-6.688,-6.6909,-6.6954,-6.6987,-6.7008,-6.7029,-6.7066,-6.7113,-6.7091,-6.7107,-6.7098,-6.7131,-6.7208,-6.7101,-6.7102,-6.7122,-6.7294,-6.7314,-6.7329,-6.7194,-6.7196,-6.7198,-6.7293,0,-6.6888,-6.6968,-6.6962,-6.7037,-6.7074,-6.705,-6.709,-6.7108,-6.7111,-6.7142,-6.7144,-6.7179,-6.7146,-6.7156,-6.7188,-6.7192,-6.7242,-6.7184,-6.7229,-6.7231,-6.7226,-6.7345,-6.7365,-6.7454,-6.7305,-6.7307,-6.7308,0,-6.6999,-6.7028,-6.7107,-6.7127,-6.7142,-6.7178,-6.7209,-6.7239,-6.7259,-6.7259,-6.728,-6.7265,-6.7311,-6.7268,-6.7331,-6.7293,-6.7311,-6.7316,-6.7319,-6.7323,-6.7275,-6.7353,-6.7481,-6.7495,-6.7327,-6.7326,-6.7324,0,-6.7076,-6.7133,-6.7189,-6.7202,-6.7226,-6.7253,-6.7263,-6.7282,-6.7303,-6.7329,-6.7343,-6.7374,-6.7391,-6.7415,-6.741,-6.7379,-6.7475,-6.7431,-6.7477,-6.7477,-6.7498,-6.7497,-6.7633,-6.7509,-6.7509,-6.7508,-6.7508,0,-6.7173,-6.7223,-6.7224,-6.7259,-6.7315,-6.7307,-6.7363,-6.737,-6.7388,-6.7423,-6.7404,-6.7437,-6.7428,-6.7461,-6.7457,-6.7512,-6.7519,-6.752,-6.7519,-6.7523,-6.7523,-6.7534,-6.7528,-6.7512,-6.7511,-6.751,-6.751,0,-6.7267,-6.727,-6.733,-6.7349,-6.7355,-6.7396,-6.7412,-6.7445,-6.7448,-6.7493,-6.7503,-6.7507,-6.7546,-6.7544,-6.7586,-6.7583,-6.7651,-6.7641,-6.7645,-6.7643,-6.769,-6.7686,-6.7838,-6.7858,-6.772,-6.7722,-6.7723,0,-6.733,-6.7369,-6.7393,-6.7417,-6.7431,-6.7468,-6.7491,-6.7486,-6.751,-6.7538,-6.7568,-6.7605,-6.7634,-6.7697,-6.7703,-6.7736,-6.7728,-6.7779,-6.7733,-6.7736,-6.7731,-6.7729,-6.7733,-6.7788,-6.779,-6.7791,-6.7792,0,-6.7441,-6.7442,-6.7476,-6.7511,-6.754,-6.7566,-6.7591,-6.7611,-6.7609,-6.7637,-6.7678,-6.7701,-6.7746,-6.7784,-6.7816,-6.7827,-6.781,-6.7807,-6.782,-6.7824,-6.7825,-6.7827,-6.7671,-6.7803,-6.7802,-6.7802,-6.7801,-6.78,-6.7522,-6.7557,-6.7581,-6.762,-6.7639,-6.7664,-6.7697,-6.7705,-6.7739,-6.7778,-6.7772,-6.7818,-6.7839,-6.7882,-6.7895,-6.7931,-6.7913,-6.793,-6.7935,-6.794,-6.7946,-6.782,-6.7936,-6.7936,-6.7936,-6.7936,-6.7935,0,-6.7634,-6.7649,-6.7686,-6.7723,-6.7754,-6.7738,-6.7765,-6.7792,-6.7834,-6.7856,-6.7887,-6.7935,-6.7972,-6.7983,-6.8018,-6.8045,-6.8038,-6.8055,-6.8053,-6.8056,-6.7959,-6.7946,-6.806,-6.806,-6.806,-6.806,-6.806,-6.806,-6.7696,-6.7754,-6.7758,-6.7826,-6.784,-6.7887,-6.7905,-6.7927,-6.7946,-6.8001,-6.8033,-6.804,-6.8058,-6.8096,-6.813,-6.8132,-6.8146,-6.8166,-6.8165,-6.8075,-6.8062,-6.805,-6.8038,-6.8169,-6.8169,-6.8259,-6.826,-6.826]}]]